Content
SEND FEEDBACK

Daily
Averages
Monthly
Summary
United States of America

SEDALIA, COLORADO


Home > North America > United States > Colorado
Elevation: 1862 meters     Latitude: 39 23N     Longitude: 104 58W

WEATHER
 
SELECT A DAY
Number of Records: 309,860;   Date Range: 8/29/01 - 11/25/14
 
SHARE

PRINT THIS DATA

[ ← Previous Day ]
WEATHER ALMANAC - 31 JANUARY, 2013
[ Next Day → ]
[ °F ]   °C
Weather ElementAverageHighLow
Temperature-1.6 °C5 °C (2:34 pm)-7 °C (12:55 am)
Dewpoint-10.4 °C-7 °C (5:54 pm)-14 °C (12:35 am)
Humidity53 %80 % (7:13 pm)31 % (2:54 pm)
Barometer1016.6 hPa1019.3 hPa (6:34 pm)1011.5 hPa (12:35 am)
Wind Speed13.4 km/h22.2 km/h (9:34 pm)
Wind Gust27.8 km/h (11:15 am)
Weather ElementAverage
Visibility16.1 km
Wind DirectionWSW (263.9 °)

Weather ElementTotal
Precipitation---
Heating Degree Days19.3 (Base 18.3)
Averaged from 67 records on 31 January, 2013
WEATHER CONDITIONS BREAKOUT
WIND DIRECTION BREAKOUT
WEATHER BY HOUR - 31 JANUARY, 2013
[ °F ]   °C
Local TimeTemperatureDewpointHumidityBarometerVisibilityWind DirectionWind SpeedGust SpeedPrecipitationEventsConditions
12:35 AM-6 °C-14 °C54 %1011.5 hPa16.1 kmWNW (290°)13 km/hClear
12:55 AM-7 °C-14 °C58 %1011.5 hPa16.1 kmWest (260°)11.1 km/hClear
1:15 AM-7 °C-13 °C63 %1011.5 hPa16.1 kmWest (260°)11.1 km/hClear
1:35 AM-5 °C-13 °C54 %1012.2 hPa16.1 kmWest (280°)13 km/hClear
1:55 AM-5 °C-13 °C54 %1012.2 hPa16.1 kmWNW (300°)14.8 km/hClear
2:15 AM-6 °C-13 °C58 %1011.9 hPa16.1 kmWest (270°)11.1 km/hClear
2:35 AM-5 °C-13 °C54 %1012.2 hPa16.1 kmWSW (250°)13 km/hClear
2:55 AM-5 °C-13 °C54 %1012.2 hPa16.1 kmWNW (290°)13 km/hClear
3:15 AM-3 °C-13 °C47 %1012.2 hPa16.1 kmNW (310°)11.1 km/hClear
3:35 AM-3 °C-12 °C51 %1012.2 hPa16.1 kmNW (320°)14.8 km/hClear
3:54 AM-5 °C-13 °C54 %1012.2 hPa16.1 kmWNW (290°)16.7 km/hClear
4:15 AM-5 °C-12 °C59 %1012.2 hPa16.1 kmWNW (290°)11.1 km/hClear
4:35 AM-6 °C-13 °C58 %1012.5 hPa16.1 kmWest (270°)13 km/hClear
5:15 AM-5 °C-13 °C54 %1012.9 hPa16.1 kmWest (280°)14.8 km/hOvercast
5:35 AM-5 °C-13 °C54 %1013.2 hPa16.1 kmWest (280°)9.3 km/hScattered Clouds
5:55 AM-5 °C-13 °C54 %1013.5 hPa16.1 kmWest (270°)9.3 km/hScattered Clouds
6:15 AM-5 °C-13 °C54 %1013.9 hPa16.1 kmWSW (240°)13 km/hScattered Clouds
6:35 AM-6 °C-13 °C58 %1013.9 hPa16.1 kmWest (260°)14.8 km/hClear
6:55 AM-5 °C-13 °C54 %1014.2 hPa16.1 kmWSW (240°)11.1 km/hClear
7:15 AM-4 °C-13 °C50 %1014.2 hPa16.1 kmSW (220°)11.1 km/hClear
7:35 AM-5 °C-13 °C54 %1014.9 hPa16.1 kmWSW (240°)9.3 km/hClear
7:55 AM-4 °C-13 °C50 %1015.6 hPa16.1 kmSW (230°)11.1 km/hClear
8:15 AM-3 °C-12 °C51 %1015.9 hPa16.1 kmWSW (240°)14.8 km/hClear
8:35 AM0 °C-12 °C41 %1016.3 hPa16.1 kmWest (280°)14.8 km/hClear
8:55 AM0 °C-11 °C44 %1016.9 hPa16.1 kmWNW (290°)13 km/hClear
9:15 AM0 °C-10 °C48 %1017.6 hPa16.1 kmWNW (300°)11.1 km/hClear
9:34 AM1 °C-11 °C41 %1017.6 hPa16.1 kmNNW (330°)13 km/hClear
9:55 AM1 °C-10 °C44 %1017.9 hPa16.1 kmNW (310°)14.8 km/hClear
10:15 AM1 °C-10 °C44 %1018.3 hPa16.1 kmNW (320°)14.8 km/hClear
10:35 AM1 °C-10 °C44 %1018.6 hPa16.1 kmNW (310°)11.1 km/hClear
10:55 AM2 °C-10 °C41 %1018.6 hPa16.1 kmNNW (340°)14.8 km/hClear
11:15 AM2 °C-10 °C41 %1018.6 hPa16.1 kmNorth (350°)18.5 km/h27.8 km/hClear
11:35 AM2 °C-10 °C41 %1018.3 hPa16.1 kmNorth (350°)20.4 km/hClear
11:55 AM2 °C-10 °C41 %1018.3 hPa16.1 kmNorth (350°)16.7 km/hClear
12:15 PM3 °C-9 °C41 %1018.6 hPa16.1 kmNW (310°)14.8 km/hClear
12:35 PM3 °C-8 °C45 %1018.3 hPa16.1 kmWNW (300°)16.7 km/hClear
12:54 PM3 °C-8 °C45 %1017.9 hPa16.1 kmWNW (300°)16.7 km/hClear
1:14 PM3 °C-9 °C41 %1017.6 hPa16.1 kmNW (310°)16.7 km/hClear
1:34 PM3 °C-9 °C41 %1017.6 hPa16.1 kmNNW (330°)14.8 km/hClear
1:54 PM4 °C-9 °C39 %1017.6 hPa16.1 kmNW (320°)13 km/hClear
2:15 PM4 °C-9 °C39 %1017.9 hPa16.1 kmWNW (290°)9.3 km/hClear
2:34 PM5 °C-10 °C33 %1017.9 hPa16.1 kmNW (320°)11.1 km/hClear
2:54 PM5 °C-11 °C31 %1017.9 hPa16.1 kmNNW (330°)9.3 km/hClear
3:15 PM4 °C-11 °C33 %1017.9 hPa16.1 kmNNW (340°)13 km/hClear
3:34 PM5 °C-11 °C31 %1017.9 hPa16.1 kmNW (310°)9.3 km/hClear
3:54 PM4 °C-11 °C33 %1018.3 hPa16.1 kmNNW (340°)13 km/hClear
4:14 PM3 °C-12 °C33 %1017.9 hPa16.1 kmCalmClear
4:34 PM3 °C-11 °C36 %1018.3 hPa16.1 kmNW (320°)7.4 km/hClear
4:54 PM2 °C-9 °C44 %1018.3 hPa16.1 kmWest (260°)7.4 km/hClear
5:14 PM0 °C-8 °C55 %1018.6 hPa16.1 kmSSW (200°)7.4 km/hClear
5:34 PM-2 °C-8 °C64 %1019 hPa16.1 kmSouth (190°)9.3 km/hClear
5:54 PM-2 °C-7 °C69 %1019 hPa16.1 kmSSW (200°)13 km/hClear
6:14 PM-2 °C-7 °C69 %1019 hPa16.1 kmSSW (200°)14.8 km/hClear
6:34 PM-3 °C-7 °C74 %1019.3 hPa16.1 kmSSW (200°)13 km/hClear
7:13 PM-4 °C-7 °C80 %1019.3 hPa16.1 kmSSE (160°)13 km/hClear
7:33 PM-3 °C-7 °C74 %1019.3 hPa16.1 kmSSW (200°)16.7 km/hClear
7:54 PM-3 °C-8 °C69 %1019.3 hPa16.1 kmSouth (190°)16.7 km/hClear
8:14 PM-3 °C-8 °C69 %1019.3 hPa16.1 kmSouth (180°)16.7 km/hClear
8:34 PM-5 °C-8 °C80 %1019.3 hPa16.1 kmSouth (190°)16.7 km/hClear
8:53 PM-4 °C-8 °C74 %1019 hPa16.1 kmSouth (190°)18.5 km/hClear
9:14 PM-3 °C-8 °C69 %1019 hPa16.1 kmSSW (200°)20.4 km/hClear
9:34 PM-3 °C-8 °C69 %1019 hPa16.1 kmSSW (200°)22.2 km/hClear
9:55 PM-4 °C-8 °C74 %1018.6 hPa16.1 kmSSW (210°)18.5 km/hClear
10:15 PM-4 °C-8 °C74 %1018.6 hPa16.1 kmSSW (210°)13 km/hClear
10:35 PM-3 °C-8 °C69 %1018.6 hPa16.1 kmSW (220°)18.5 km/hClear
11:15 PM-5 °C-9 °C74 %1019 hPa16.1 kmSW (220°)14.8 km/hClear
11:35 PM-3 °C-10 °C59 %1019 hPa16.1 kmSW (230°)11.1 km/hClear
Hourly data recorded from KMNH, located 0 kilometers away from Sedalia, Colorado







STORIES FROM OUR PARTNERS